| time (UTC) | temp C | wind direction | speed KPH | gust KPH | rain 1hr cm | rain 24hr cm | rain mn cm | humidity % | barometer mb |
| 20260903163100 | 23 | 0 | 1.6 | 6.4 | 0.00 | 0.00 | 0.00 | 30 | 1012.2 |
| 20260903162524 | 23 | 355 | 1.6 | 6.4 | 0.00 | 0.00 | 0.00 | 35 | 1012.2 |
| 20260903162025 | 22 | 345 | 1.6 | 4.8 | 0.00 | 0.00 | 0.00 | 34 | 1012.2 |
| 20260903161548 | 22 | 47 | 0.0 | 6.4 | 0.00 | 0.00 | 0.00 | 35 | 1012.0 |
| 20260903161026 | 22 | 0 | 1.6 | 6.4 | 0.00 | 0.00 | 0.00 | 38 | 1012.1 |
| 20260903160529 | 22 | 279 | 0.0 | 3.2 | 0.00 | 0.00 | 0.00 | 41 | 1011.9 |
| 20260903160043 | 21 | 0 | 0.0 | 4.8 | 0.00 | 0.00 | 0.00 | 44 | 1012.0 |
| 20260903155525 | 21 | 0 | 0.0 | 4.8 | 0.00 | 0.00 | 0.00 | 46 | 1011.9 |
| 20260903155024 | 20 | 0 | 0.0 | 3.2 | 0.00 | 0.00 | 0.00 | 45 | 1011.9 |
| 20260903154543 | 20 | 0 | 0.0 | 3.2 | 0.00 | 0.00 | 0.00 | 46 | 1011.9 |
| 20260903154024 | 19 | 0 | 0.0 | 4.8 | 0.00 | 0.00 | 0.00 | 45 | 1012.0 |
| 20260903153523 | 18 | 37 | 1.6 | 4.8 | 0.00 | 0.00 | 0.00 | 44 | 1011.9 |
| 20260903153050 | 18 | 37 | 3.2 | 4.8 | 0.00 | 0.00 | 0.00 | 47 | 1012.1 |
| 20260903152526 | 17 | 46 | 0.0 | 6.4 | 0.00 | 0.00 | 0.00 | 48 | 1012.0 |
| 20260903152025 | 17 | 0 | 1.6 | 6.4 | 0.00 | 0.00 | 0.00 | 49 | 1011.9 |
| 20260903151546 | 16 | 270 | 3.2 | 9.7 | 0.00 | 0.00 | 0.00 | 53 | 1012.0 |
| 20260903151025 | 16 | 176 | 1.6 | 9.7 | 0.00 | 0.00 | 0.00 | 56 | 1011.8 |
| 20260903150524 | 16 | 162 | 4.8 | 9.7 | 0.00 | 0.00 | 0.00 | 50 | 1011.9 |
| 20260903150108 | 15 | 0 | 0.0 | 4.8 | 0.00 | 0.00 | 0.00 | 56 | 1011.9 |
| 20260903145524 | 15 | 0 | 1.6 | 6.4 | 0.00 | 0.00 | 0.00 | 58 | 1011.9 |
| 20260903145025 | 15 | 150 | 1.6 | 6.4 | 0.00 | 0.00 | 0.00 | 55 | 1011.8 |
| 20260903144545 | 15 | 155 | 3.2 | 6.4 | 0.00 | 0.00 | 0.00 | 59 | 1012.0 |
| 20260903144025 | 15 | 188 | 3.2 | 6.4 | 0.00 | 0.00 | 0.00 | 57 | 1011.9 |
| 20260903143525 | 14 | 0 | 3.2 | 6.4 | 0.00 | 0.00 | 0.00 | 56 | 1012.0 |
| 20260903143046 | 14 | 222 | 1.6 | 4.8 | 0.00 | 0.00 | 0.00 | 55 | 1012.0 |
| 20260903142528 | 13 | 224 | 0.0 | 4.8 | 0.00 | 0.00 | 0.00 | 54 | 1011.9 |
| 20260903142027 | 13 | 224 | 1.6 | 4.8 | 0.00 | 0.00 | 0.00 | 56 | 1011.8 |
| 20260903141547 | 13 | 222 | 1.6 | 4.8 | 0.00 | 0.00 | 0.00 | 55 | 1011.8 |
| 20260903141027 | 13 | 238 | 1.6 | 4.8 | 0.00 | 0.00 | 0.00 | 57 | 1011.7 |
| 20260903140524 | 13 | 0 | 0.0 | 4.8 | 0.00 | 0.00 | 0.00 | 55 | 1011.5 |
| 20260903140048 | 13 | 268 | 1.6 | 4.8 | 0.00 | 0.00 | 0.00 | 53 | 1011.3 |
| 20260903135525 | 13 | 267 | 1.6 | 4.8 | 0.00 | 0.00 | 0.00 | 51 | 1011.3 |
| 20260903135026 | 13 | 193 | 1.6 | 4.8 | 0.00 | 0.00 | 0.00 | 53 | 1011.3 |
| 20260903134544 | 13 | 262 | 1.6 | 6.4 | 0.00 | 0.00 | 0.00 | 52 | 1011.2 |
| 20260903134025 | 13 | 266 | 1.6 | 6.4 | 0.00 | 0.00 | 0.00 | 52 | 1011.2 |
| 20260903133524 | 13 | 226 | 1.6 | 6.4 | 0.00 | 0.00 | 0.00 | 55 | 1011.0 |
| 20260903133052 | 13 | 198 | 3.2 | 8.0 | 0.00 | 0.00 | 0.00 | 57 | 1010.9 |
| 20260903132526 | 13 | 232 | 3.2 | 8.0 | 0.00 | 0.00 | 0.00 | 56 | 1010.9 |
| 20260903132024 | 14 | 197 | 3.2 | 8.0 | 0.00 | 0.00 | 0.00 | 54 | 1010.8 |
| 20260903131547 | 13 | 241 | 1.6 | 6.4 | 0.00 | 0.00 | 0.00 | 54 | 1010.7 |
| 20260903131027 | 13 | 227 | 3.2 | 6.4 | 0.00 | 0.00 | 0.00 | 56 | 1010.8 |
| 20260903130527 | 14 | 225 | 0.0 | 4.8 | 0.00 | 0.00 | 0.00 | 56 | 1010.3 |
| 20260903130044 | 14 | 0 | 0.0 | 6.4 | 0.00 | 0.00 | 0.00 | 56 | 1010.3 |
| 20260903125523 | 14 | 225 | 1.6 | 6.4 | 0.00 | 0.00 | 0.00 | 56 | 1010.2 |
| 20260903125029 | 14 | 225 | 0.0 | 4.8 | 0.00 | 0.00 | 0.00 | 58 | 1010.2 |
| 20260903124553 | 14 | 0 | 0.0 | 3.2 | 0.00 | 0.00 | 0.00 | 58 | 1010.1 |
| 20260903124023 | 14 | 333 | 0.0 | 3.2 | 0.00 | 0.00 | 0.00 | 57 | 1010.0 |
| 20260903123526 | 15 | 0 | 0.0 | 1.6 | 0.00 | 0.00 | 0.00 | 58 | 1010.0 |
| 20260903123046 | 15 | 0 | 0.0 | 1.6 | 0.00 | 0.00 | 0.00 | 58 | 1010.1 |
| 20260903122525 | 15 | 333 | 0.0 | 3.2 | 0.00 | 0.00 | 0.00 | 59 | 1010.0 |
| 20260903122026 | 15 | 0 | 0.0 | 4.8 | 0.00 | 0.00 | 0.00 | 56 | 1010.1 |
| 20260903121548 | 15 | 333 | 1.6 | 8.0 | 0.00 | 0.00 | 0.00 | 58 | 1009.9 |
| 20260903121024 | 15 | 236 | 1.6 | 8.0 | 0.00 | 0.00 | 0.00 | 54 | 1010.0 |
| 20260903120524 | 15 | 266 | 1.6 | 6.4 | 0.00 | 0.00 | 0.00 | 53 | 1010.0 |
| 20260903120052 | 15 | 0 | 0.0 | 4.8 | 0.00 | 0.00 | 0.00 | 56 | 1010.0 |
| 20260903115523 | 15 | 153 | 1.6 | 6.4 | 0.00 | 0.00 | 0.00 | 55 | 1010.1 |
| 20260903115023 | 15 | 259 | 1.6 | 8.0 | 0.00 | 0.00 | 0.00 | 52 | 1010.2 |
| 20260903114604 | 15 | 259 | 1.6 | 8.0 | 0.00 | 0.00 | 0.00 | 55 | 1010.2 |
| 20260903114024 | 14 | 124 | 3.2 | 8.0 | 0.00 | 0.00 | 0.00 | 57 | 1010.2 |
| 20260903113529 | 15 | 265 | 0.0 | 4.8 | 0.00 | 0.00 | 0.00 | 58 | 1010.0 |
| 20260903113044 | 15 | 283 | 1.6 | 4.8 | 0.00 | 0.00 | 0.00 | 60 | 1010.2 |
| 20260903112526 | 15 | 289 | 0.0 | 4.8 | 0.00 | 0.00 | 0.00 | 58 | 1010.1 |
| 20260903112026 | 15 | 289 | 1.6 | 4.8 | 0.00 | 0.00 | 0.00 | 57 | 1010.4 |
| 20260903111550 | 15 | 288 | 0.0 | 4.8 | 0.00 | 0.00 | 0.00 | 56 | 1010.6 |
| 20260903111029 | 15 | 288 | 1.6 | 4.8 | 0.00 | 0.00 | 0.00 | 55 | 1010.5 |
| 20260903110524 | 15 | 0 | 0.0 | 4.8 | 0.00 | 0.00 | 0.00 | 55 | 1010.8 |
| 20260903110044 | 15 | 0 | 0.0 | 3.2 | 0.00 | 0.00 | 0.00 | 55 | 1010.7 |
| 20260903105523 | 15 | 288 | 0.0 | 3.2 | 0.00 | 0.00 | 0.00 | 56 | 1010.7 |
| 20260903105023 | 15 | 288 | 1.6 | 4.8 | 0.00 | 0.00 | 0.00 | 53 | 1010.7 |
| 20260903104546 | 15 | 288 | 1.6 | 4.8 | 0.00 | 0.00 | 0.00 | 54 | 1010.9 |
| 20260903104027 | 15 | 191 | 0.0 | 3.2 | 0.00 | 0.00 | 0.00 | 55 | 1010.7 |
| 20260903103525 | 15 | 191 | 1.6 | 3.2 | 0.00 | 0.00 | 0.00 | 54 | 1010.6 |
| 20260903103051 | 15 | 0 | 0.0 | 4.8 | 0.00 | 0.00 | 0.00 | 47 | 1010.5 |
| 20260903102526 | 15 | 0 | 0.0 | 4.8 | 0.00 | 0.00 | 0.00 | 53 | 1010.6 |
| 20260903102024 | 15 | 198 | 1.6 | 3.2 | 0.00 | 0.00 | 0.00 | 59 | 1010.6 |
| 20260903101553 | 15 | 301 | 1.6 | 3.2 | 0.00 | 0.00 | 0.00 | 60 | 1010.3 |
| 20260903101023 | 15 | 0 | 0.0 | 0.0 | 0.00 | 0.00 | 0.00 | 59 | 1010.6 |
| 20260903100524 | 15 | 0 | 0.0 | 0.0 | 0.00 | 0.00 | 0.00 | 59 | 1010.8 |
| 20260903100046 | 15 | 0 | 0.0 | 3.2 | 0.00 | 0.00 | 0.00 | 55 | 1010.8 |
| 20260903095523 | 15 | 0 | 0.0 | 3.2 | 0.00 | 0.00 | 0.00 | 57 | 1010.7 |
| 20260903095024 | 15 | 301 | 1.6 | 4.8 | 0.00 | 0.00 | 0.00 | 59 | 1010.7 |
| 20260903094551 | 15 | 0 | 0.0 | 4.8 | 0.00 | 0.00 | 0.00 | 60 | 1010.4 |
| 20260903094025 | 15 | 301 | 1.6 | 4.8 | 0.00 | 0.00 | 0.00 | 57 | 1010.6 |
| 20260903093529 | 15 | 297 | 0.0 | 4.8 | 0.00 | 0.00 | 0.00 | 56 | 1010.4 |
| 20260903093113 | 15 | 297 | 1.6 | 4.8 | 0.00 | 0.00 | 0.00 | 57 | 1010.2 |
| 20260903092524 | 15 | 0 | 0.0 | 4.8 | 0.00 | 0.00 | 0.00 | 60 | 1010.2 |
| 20260903092027 | 15 | 0 | 1.6 | 4.8 | 0.00 | 0.00 | 0.00 | 55 | 1010.3 |
| 20260903091555 | 15 | 306 | 0.0 | 0.0 | 0.00 | 0.00 | 0.00 | 54 | 1010.3 |
| 20260903091024 | 15 | 0 | 0.0 | 0.0 | 0.00 | 0.00 | 0.00 | 53 | 1010.2 |
| 20260903090523 | 15 | 0 | 0.0 | 0.0 | 0.00 | 0.00 | 0.00 | 53 | 1010.2 |
| 20260903090047 | 16 | 0 | 0.0 | 1.6 | 0.00 | 0.00 | 0.00 | 56 | 1010.0 |
| 20260903085522 | 16 | 0 | 0.0 | 3.2 | 0.00 | 0.00 | 0.00 | 53 | 1010.0 |
| 20260903085022 | 16 | 0 | 0.0 | 3.2 | 0.00 | 0.00 | 0.00 | 50 | 1010.0 |
| 20260903084545 | 16 | 0 | 0.0 | 3.2 | 0.00 | 0.00 | 0.00 | 52 | 1009.8 |
| 20260903084025 | 16 | 306 | 0.0 | 1.6 | 0.00 | 0.00 | 0.00 | 53 | 1009.7 |
| 20260903083526 | 16 | 0 | 0.0 | 1.6 | 0.00 | 0.00 | 0.00 | 50 | 1009.7 |
| 20260903083044 | 16 | 0 | 0.0 | 1.6 | 0.00 | 0.00 | 0.00 | 52 | 1009.7 |
| 20260903082531 | 16 | 0 | 0.0 | 3.2 | 0.00 | 0.00 | 0.00 | 52 | 1009.7 |
| 20260903082024 | 16 | 0 | 0.0 | 6.4 | 0.00 | 0.00 | 0.00 | 53 | 1009.6 |
| 20260903081554 | 16 | 333 | 1.6 | 6.4 | 0.00 | 0.00 | 0.00 | 48 | 1009.5 |
| 20260903081030 | 16 | 333 | 1.6 | 6.4 | 0.00 | 0.00 | 0.00 | 49 | 1009.5 |
| 20260903080532 | 17 | 0 | 0.0 | 4.8 | 0.00 | 0.00 | 0.00 | 49 | 1009.5 |
| 20260903080045 | 17 | 0 | 0.0 | 4.8 | 0.00 | 0.00 | 0.00 | 49 | 1009.6 |
| 20260903075525 | 17 | 13 | 1.6 | 4.8 | 0.00 | 0.00 | 0.00 | 46 | 1009.5 |
| 20260903075031 | 17 | 119 | 0.0 | 3.2 | 0.00 | 0.00 | 0.00 | 46 | 1009.6 |
| 20260903074545 | 17 | 0 | 0.0 | 0.0 | 0.00 | 0.00 | 0.00 | 46 | 1009.6 |
| 20260903074028 | 17 | 0 | 0.0 | 4.8 | 0.00 | 0.00 | 0.00 | 46 | 1009.8 |
| 20260903073527 | 17 | 0 | 0.0 | 6.4 | 0.00 | 0.00 | 0.00 | 48 | 1009.6 |
| 20260903073052 | 17 | 127 | 1.6 | 6.4 | 0.00 | 0.00 | 0.00 | 46 | 1009.6 |
| 20260903072526 | 17 | 70 | 3.2 | 6.4 | 0.00 | 0.00 | 0.00 | 48 | 1009.7 |
| 20260903072027 | 17 | 342 | 1.6 | 9.7 | 0.00 | 0.00 | 0.00 | 48 | 1009.8 |
| 20260903071610 | 17 | 0 | 1.6 | 9.7 | 0.00 | 0.00 | 0.00 | 47 | 1009.8 |
| 20260903071023 | 17 | 359 | 4.8 | 9.7 | 0.00 | 0.00 | 0.00 | 50 | 1009.8 |
| 20260903070531 | 17 | 8 | 1.6 | 8.0 | 0.00 | 0.00 | 0.00 | 46 | 1009.8 |
| 20260903070059 | 17 | 78 | 3.2 | 6.4 | 0.00 | 0.00 | 0.00 | 44 | 1009.7 |
| 20260903065525 | 17 | 67 | 1.6 | 9.7 | 0.00 | 0.00 | 0.00 | 47 | 1009.8 |
| 20260903065025 | 17 | 305 | 4.8 | 9.7 | 0.00 | 0.00 | 0.00 | 50 | 1009.8 |
| 20260903064550 | 17 | 52 | 4.8 | 8.0 | 0.00 | 0.00 | 0.00 | 47 | 1009.6 |
| 20260903064027 | 17 | 0 | 1.6 | 6.4 | 0.00 | 0.00 | 0.00 | 47 | 1009.7 |
| 20260903063527 | 18 | 0 | 1.6 | 6.4 | 0.00 | 0.00 | 0.00 | 45 | 1009.5 |
| 20260903063059 | 18 | 136 | 1.6 | 6.4 | 0.00 | 0.00 | 0.00 | 45 | 1009.5 |
| 20260903062527 | 18 | 137 | 0.0 | 11.3 | 0.00 | 0.00 | 0.00 | 38 | 1009.4 |
| 20260903062026 | 18 | 0 | 1.6 | 11.3 | 0.00 | 0.00 | 0.00 | 38 | 1009.5 |
| 20260903061546 | 17 | 247 | 0.0 | 11.3 | 0.00 | 0.00 | 0.00 | 42 | 1009.6 |
| 20260903061026 | 17 | 0 | 0.0 | 3.2 | 0.00 | 0.00 | 0.00 | 42 | 1009.5 |
| 20260903060524 | 17 | 212 | 1.6 | 6.4 | 0.00 | 0.00 | 0.00 | 45 | 1009.5 |
| 20260903060048 | 17 | 0 | 1.6 | 6.4 | 0.00 | 0.00 | 0.00 | 46 | 1009.6 |
| 20260903055525 | 17 | 0 | 0.0 | 4.8 | 0.00 | 0.00 | 0.00 | 50 | 1009.6 |
| 20260903055024 | 17 | 249 | 0.0 | 4.8 | 0.00 | 0.00 | 0.00 | 51 | 1009.5 |
| 20260903054545 | 18 | 347 | 1.6 | 4.8 | 0.00 | 0.00 | 0.00 | 48 | 1009.5 |
| 20260903054028 | 18 | 0 | 1.6 | 3.2 | 0.00 | 0.00 | 0.00 | 45 | 1009.3 |
| 20260903053528 | 18 | 0 | 0.0 | 6.4 | 0.00 | 0.00 | 0.00 | 48 | 1009.4 |
| 20260903053052 | 18 | 236 | 0.0 | 6.4 | 0.00 | 0.00 | 0.00 | 46 | 1009.4 |
| 20260903052527 | 18 | 0 | 0.0 | 3.2 | 0.00 | 0.00 | 0.00 | 44 | 1009.5 |
| 20260903052025 | 18 | 0 | 0.0 | 3.2 | 0.00 | 0.00 | 0.00 | 43 | 1009.5 |
| 20260903051557 | 17 | 0 | 0.0 | 4.8 | 0.00 | 0.00 | 0.00 | 45 | 1009.5 |
| 20260903051026 | 17 | 0 | 0.0 | 4.8 | 0.00 | 0.00 | 0.00 | 46 | 1009.5 |
| 20260903050524 | 17 | 179 | 1.6 | 4.8 | 0.00 | 0.00 | 0.00 | 46 | 1009.5 |
| 20260903050056 | 17 | 217 | 0.0 | 4.8 | 0.00 | 0.00 | 0.00 | 50 | 1009.7 |
| 20260903045525 | 17 | 0 | 0.0 | 1.6 | 0.00 | 0.00 | 0.00 | 48 | 1009.6 |
| 20260903045026 | 17 | 243 | 0.0 | 1.6 | 0.00 | 0.00 | 0.00 | 49 | 1009.4 |
| 20260903044559 | 17 | 0 | 0.0 | 1.6 | 0.00 | 0.00 | 0.00 | 52 | 1009.4 |
| 20260903044028 | 17 | 0 | 0.0 | 1.6 | 0.00 | 0.00 | 0.00 | 53 | 1009.5 |
| 20260903043523 | 17 | 0 | 0.0 | 1.6 | 0.00 | 0.00 | 0.00 | 50 | 1009.5 |
| 20260903043045 | 17 | 0 | 0.0 | 3.2 | 0.00 | 0.00 | 0.00 | 50 | 1009.5 |
| 20260903042530 | 17 | 0 | 0.0 | 4.8 | 0.00 | 0.00 | 0.00 | 52 | 1009.5 |
| 20260903042024 | 17 | 0 | 0.0 | 4.8 | 0.00 | 0.00 | 0.00 | 50 | 1009.5 |
| 20260903041543 | 17 | 243 | 0.0 | 4.8 | 0.00 | 0.00 | 0.00 | 50 | 1009.5 |
| 20260903041025 | 17 | 0 | 0.0 | 3.2 | 0.00 | 0.00 | 0.00 | 55 | 1009.4 |
| 20260903040524 | 17 | 0 | 0.0 | 3.2 | 0.00 | 0.00 | 0.00 | 53 | 1009.3 |
| 20260903040058 | 17 | 239 | 0.0 | 4.8 | 0.00 | 0.00 | 0.00 | 54 | 1009.4 |
| 20260903035527 | 17 | 0 | 0.0 | 8.0 | 0.00 | 0.00 | 0.00 | 52 | 1009.4 |
| 20260903035030 | 17 | 0 | 1.6 | 8.0 | 0.00 | 0.00 | 0.00 | 51 | 1009.3 |
| 20260903034544 | 18 | 0 | 1.6 | 4.8 | 0.00 | 0.00 | 0.00 | 53 | 1009.2 |
| 20260903034027 | 18 | 216 | 0.0 | 4.8 | 0.00 | 0.00 | 0.00 | 50 | 1009.1 |
| 20260903033527 | 18 | 0 | 0.0 | 4.8 | 0.00 | 0.00 | 0.00 | 47 | 1009.1 |
| 20260903033044 | 18 | 0 | 0.0 | 1.6 | 0.00 | 0.00 | 0.00 | 48 | 1009.0 |
| 20260903032526 | 18 | 0 | 0.0 | 3.2 | 0.00 | 0.00 | 0.00 | 48 | 1009.1 |
| 20260903032026 | 18 | 0 | 0.0 | 4.8 | 0.00 | 0.00 | 0.00 | 47 | 1009.1 |
| 20260903031541 | 18 | 197 | 0.0 | 4.8 | 0.00 | 0.00 | 0.00 | 47 | 1009.0 |
| 20260903031025 | 18 | 0 | 0.0 | 3.2 | 0.00 | 0.00 | 0.00 | 49 | 1008.9 |
| 20260903030529 | 18 | 0 | 0.0 | 0.0 | 0.00 | 0.00 | 0.00 | 51 | 1008.8 |
| 20260903030052 | 19 | 0 | 0.0 | 0.0 | 0.00 | 0.00 | 0.00 | 49 | 1008.8 |
| 20260903025527 | 19 | 0 | 0.0 | 0.0 | 0.00 | 0.00 | 0.00 | 48 | 1008.8 |
| 20260903025028 | 19 | 0 | 0.0 | 6.4 | 0.00 | 0.00 | 0.00 | 47 | 1008.5 |
| 20260903024546 | 20 | 0 | 0.0 | 6.4 | 0.00 | 0.00 | 0.00 | 48 | 1008.3 |
| 20260903024027 | 20 | 207 | 1.6 | 6.4 | 0.00 | 0.00 | 0.00 | 49 | 1008.4 |
| 20260903023527 | 21 | 323 | 3.2 | 6.4 | 0.00 | 0.00 | 0.00 | 45 | 1008.3 |
| 20260903023047 | 21 | 0 | 0.0 | 0.0 | 0.00 | 0.00 | 0.00 | 41 | 1008.3 |
| 20260903022526 | 21 | 0 | 0.0 | 0.0 | 0.00 | 0.00 | 0.00 | 41 | 1008.0 |
| 20260903022025 | 22 | 0 | 0.0 | 0.0 | 0.00 | 0.00 | 0.00 | 40 | 1008.0 |
| 20260903021544 | 22 | 0 | 0.0 | 0.0 | 0.00 | 0.00 | 0.00 | 37 | 1007.8 |
| 20260903021025 | 22 | 0 | 0.0 | 0.0 | 0.00 | 0.00 | 0.00 | 37 | 1007.8 |
| 20260903020525 | 23 | 0 | 0.0 | 0.0 | 0.00 | 0.00 | 0.00 | 37 | 1007.7 |
| 20260903020054 | 23 | 0 | 0.0 | 3.2 | 0.00 | 0.00 | 0.00 | 37 | 1007.7 |
| 20260903015527 | 23 | 0 | 0.0 | 4.8 | 0.00 | 0.00 | 0.00 | 35 | 1007.7 |
| 20260903015027 | 24 | 263 | 1.6 | 4.8 | 0.00 | 0.00 | 0.00 | 33 | 1007.6 |
| 20260903014557 | 24 | 263 | 0.0 | 4.8 | 0.00 | 0.00 | 0.00 | 34 | 1007.7 |
| 20260903014029 | 24 | 241 | 1.6 | 4.8 | 0.00 | 0.00 | 0.00 | 34 | 1007.7 |
| 20260903013525 | 25 | 0 | 0.0 | 1.6 | 0.00 | 0.00 | 0.00 | 35 | 1007.6 |
| 20260903013055 | 25 | 0 | 0.0 | 0.0 | 0.00 | 0.00 | 0.00 | 35 | 1007.7 |
| 20260903012525 | 25 | 0 | 0.0 | 0.0 | 0.00 | 0.00 | 0.00 | 35 | 1007.9 |
| 20260903012024 | 25 | 0 | 0.0 | 0.0 | 0.00 | 0.00 | 0.00 | 33 | 1007.8 |
| 20260903011551 | 26 | 0 | 0.0 | 1.6 | 0.00 | 0.00 | 0.00 | 33 | 1007.7 |
| 20260903011029 | 26 | 0 | 0.0 | 3.2 | 0.00 | 0.00 | 0.00 | 33 | 1007.7 |
| 20260903010527 | 26 | 0 | 0.0 | 3.2 | 0.00 | 0.00 | 0.00 | 32 | 1007.7 |
| 20260903010049 | 26 | 0 | 0.0 | 4.8 | 0.00 | 0.00 | 0.00 | 31 | 1007.7 |
| 20260903005523 | 26 | 266 | 1.6 | 6.4 | 0.00 | 0.00 | 0.00 | 34 | 1007.7 |
| 20260903005025 | 26 | 264 | 1.6 | 6.4 | 0.00 | 0.00 | 0.00 | 32 | 1007.8 |
| 20260903004551 | 26 | 0 | 0.0 | 6.4 | 0.00 | 0.00 | 0.00 | 31 | 1007.8 |
| 20260903004028 | 26 | 262 | 1.6 | 9.7 | 0.00 | 0.00 | 0.00 | 31 | 1007.7 |
| 20260903003526 | 27 | 0 | 1.6 | 9.7 | 0.00 | 0.00 | 0.00 | 30 | 1007.7 |
| 20260903003057 | 27 | 248 | 3.2 | 9.7 | 0.00 | 0.00 | 0.00 | 30 | 1007.7 |
| 20260903002528 | 27 | 205 | 3.2 | 9.7 | 0.00 | 0.00 | 0.00 | 31 | 1007.6 |
| 20260903002026 | 27 | 183 | 3.2 | 12.9 | 0.00 | 0.00 | 0.00 | 29 | 1007.6 |
| 20260903001553 | 27 | 236 | 4.8 | 14.5 | 0.00 | 0.00 | 0.00 | 28 | 1007.6 |
| 20260903001025 | 27 | 203 | 8.0 | 14.5 | 0.00 | 0.00 | 0.00 | 27 | 1007.6 |
| 20260903000525 | 27 | 237 | 4.8 | 16.1 | 0.00 | 0.00 | 0.00 | 28 | 1007.6 |
| 20260903000058 | 27 | 231 | 6.4 | 16.1 | 0.00 | 0.00 | 0.00 | 27 | 1007.5 |
| 20260902235527 | 27 | 200 | 4.8 | 14.5 | 0.00 | 0.00 | 0.00 | 27 | 1007.4 |
| 20260902235026 | 27 | 251 | 6.4 | 17.7 | 0.00 | 0.00 | 0.00 | 28 | 1007.4 |
| 20260902234548 | 28 | 229 | 6.4 | 17.7 | 0.00 | 0.00 | 0.00 | 26 | 1007.4 |
| 20260902234027 | 28 | 227 | 6.4 | 14.5 | 0.00 | 0.00 | 0.00 | 25 | 1007.4 |
| 20260902233527 | 28 | 262 | 6.4 | 14.5 | 0.00 | 0.00 | 0.00 | 25 | 1007.2 |
| 20260902233046 | 28 | 252 | 4.8 | 12.9 | 0.00 | 0.00 | 0.00 | 27 | 1007.3 |
| 20260902232529 | 28 | 254 | 4.8 | 16.1 | 0.00 | 0.00 | 0.00 | 28 | 1007.1 |
| 20260902232025 | 28 | 221 | 3.2 | 19.3 | 0.00 | 0.00 | 0.00 | 27 | 1007.2 |
| 20260902231547 | 28 | 236 | 4.8 | 19.3 | 0.00 | 0.00 | 0.00 | 26 | 1007.2 |
| 20260902231026 | 28 | 212 | 8.0 | 19.3 | 0.00 | 0.00 | 0.00 | 25 | 1007.3 |
| 20260902230526 | 28 | 192 | 6.4 | 17.7 | 0.00 | 0.00 | 0.00 | 26 | 1007.0 |
| 20260902230054 | 29 | 204 | 8.0 | 17.7 | 0.00 | 0.00 | 0.00 | 26 | 1007.1 |
| 20260902225528 | 29 | 192 | 8.0 | 17.7 | 0.00 | 0.00 | 0.00 | 27 | 1007.0 |
| 20260902225028 | 29 | 239 | 8.0 | 19.3 | 0.00 | 0.00 | 0.00 | 26 | 1007.0 |
| 20260902224604 | 29 | 232 | 8.0 | 19.3 | 0.00 | 0.00 | 0.00 | 24 | 1007.0 |
| 20260902224027 | 30 | 234 | 8.0 | 20.9 | 0.00 | 0.00 | 0.00 | 26 | 1007.0 |
| 20260902223526 | 30 | 237 | 9.7 | 20.9 | 0.00 | 0.00 | 0.00 | 27 | 1007.0 |
| 20260902223108 | 30 | 238 | 8.0 | 25.7 | 0.00 | 0.00 | 0.00 | 25 | 1007.0 |
| 20260902222527 | 30 | 245 | 8.0 | 25.7 | 0.00 | 0.00 | 0.00 | 25 | 1006.9 |
| 20260902222029 | 30 | 208 | 9.7 | 25.7 | 0.00 | 0.00 | 0.00 | 25 | 1006.9 |
| 20260902221553 | 30 | 218 | 4.8 | 20.9 | 0.00 | 0.00 | 0.00 | 27 | 1006.9 |
| 20260902221027 | 29 | 236 | 8.0 | 20.9 | 0.00 | 0.00 | 0.00 | 25 | 1007.0 |
| 20260902220525 | 29 | 232 | 6.4 | 20.9 | 0.00 | 0.00 | 0.00 | 25 | 1007.1 |
| 20260902220049 | 28 | 210 | 8.0 | 12.9 | 0.00 | 0.00 | 0.00 | 26 | 1007.1 |
| 20260902215527 | 29 | 241 | 4.8 | 19.3 | 0.00 | 0.00 | 0.00 | 24 | 1007.3 |
| 20260902215028 | 29 | 267 | 9.7 | 19.3 | 0.00 | 0.00 | 0.00 | 25 | 1007.1 |
| 20260902214610 | 29 | 234 | 4.8 | 9.7 | 0.00 | 0.00 | 0.00 | 27 | 1007.2 |
| 20260902214026 | 29 | 188 | 4.8 | 9.7 | 0.00 | 0.00 | 0.00 | 28 | 1007.2 |
| 20260902213531 | 29 | 0 | 1.6 | 9.7 | 0.00 | 0.00 | 0.00 | 25 | 1007.1 |
| 20260902213052 | 29 | 216 | 4.8 | 12.9 | 0.00 | 0.00 | 0.00 | 23 | 1007.3 |
| 20260902212527 | 29 | 266 | 4.8 | 12.9 | 0.00 | 0.00 | 0.00 | 26 | 1007.2 |
| 20260902212027 | 29 | 259 | 6.4 | 11.3 | 0.00 | 0.00 | 0.00 | 24 | 1007.4 |
| 20260902211545 | 29 | 214 | 4.8 | 9.7 | 0.00 | 0.00 | 0.00 | 26 | 1007.5 |
| 20260902211026 | 29 | 257 | 3.2 | 8.0 | 0.00 | 0.00 | 0.00 | 28 | 1007.5 |
| 20260902210526 | 29 | 330 | 3.2 | 8.0 | 0.00 | 0.00 | 0.00 | 28 | 1007.4 |
| 20260902210047 | 29 | 83 | 1.6 | 8.0 | 0.00 | 0.00 | 0.00 | 30 | 1007.6 |
| 20260902205525 | 29 | 108 | 3.2 | 9.7 | 0.00 | 0.00 | 0.00 | 30 | 1007.8 |
| 20260902205026 | 29 | 164 | 3.2 | 9.7 | 0.00 | 0.00 | 0.00 | 28 | 1007.8 |
| 20260902204545 | 29 | 131 | 0.0 | 6.4 | 0.00 | 0.00 | 0.00 | 32 | 1007.9 |
| 20260902204026 | 29 | 0 | 0.0 | 6.4 | 0.00 | 0.00 | 0.00 | 28 | 1008.0 |
| 20260902203525 | 29 | 128 | 1.6 | 6.4 | 0.00 | 0.00 | 0.00 | 30 | 1008.0 |
| 20260902203046 | 29 | 27 | 3.2 | 8.0 | 0.00 | 0.00 | 0.00 | 27 | 1008.1 |
| 20260902202527 | 28 | 0 | 0.0 | 11.3 | 0.00 | 0.00 | 0.00 | 28 | 1008.4 |
| 20260902202025 | 28 | 134 | 3.2 | 11.3 | 0.00 | 0.00 | 0.00 | 29 | 1008.6 |
| 20260902201556 | 28 | 196 | 3.2 | 11.3 | 0.00 | 0.00 | 0.00 | 30 | 1008.6 |
| 20260902201024 | 28 | 210 | 4.8 | 11.3 | 0.00 | 0.00 | 0.00 | 30 | 1008.6 |
| 20260902200526 | 28 | 154 | 6.4 | 9.7 | 0.00 | 0.00 | 0.00 | 31 | 1008.8 |
| 20260902200049 | 28 | 103 | 1.6 | 12.9 | 0.00 | 0.00 | 0.00 | 32 | 1008.7 |
| 20260902195527 | 28 | 212 | 3.2 | 12.9 | 0.00 | 0.00 | 0.00 | 30 | 1008.8 |
| 20260902195027 | 28 | 155 | 8.0 | 12.9 | 0.00 | 0.00 | 0.00 | 30 | 1008.9 |
| 20260902194548 | 27 | 188 | 6.4 | 17.7 | 0.00 | 0.00 | 0.00 | 31 | 1008.9 |
| 20260902194027 | 27 | 195 | 4.8 | 20.9 | 0.00 | 0.00 | 0.00 | 33 | 1008.9 |
| 20260902193525 | 27 | 85 | 9.7 | 20.9 | 0.00 | 0.00 | 0.00 | 31 | 1008.9 |
| 20260902193046 | 28 | 139 | 4.8 | 16.1 | 0.00 | 0.00 | 0.00 | 33 | 1009.1 |
| 20260902192525 | 28 | 211 | 3.2 | 19.3 | 0.00 | 0.00 | 0.00 | 37 | 1009.1 |
| 20260902192030 | 28 | 173 | 6.4 | 24.1 | 0.00 | 0.00 | 0.00 | 30 | 1009.2 |
| 20260902191556 | 28 | 136 | 9.7 | 24.1 | 0.00 | 0.00 | 0.00 | 30 | 1009.3 |
| 20260902191029 | 28 | 129 | 8.0 | 20.9 | 0.00 | 0.00 | 0.00 | 32 | 1009.2 |
| 20260902190527 | 28 | 198 | 9.7 | 20.9 | 0.00 | 0.00 | 0.00 | 33 | 1009.4 |
| 20260902190053 | 28 | 240 | 8.0 | 22.5 | 0.00 | 0.00 | 0.00 | 34 | 1009.3 |
| 20260902185526 | 27 | 190 | 8.0 | 22.5 | 0.00 | 0.00 | 0.00 | 39 | 1009.5 |
| 20260902185028 | 27 | 174 | 8.0 | 22.5 | 0.00 | 0.00 | 0.00 | 32 | 1009.6 |
| 20260902184608 | 27 | 97 | 8.0 | 17.7 | 0.00 | 0.00 | 0.00 | 35 | 1009.7 |
| 20260902184028 | 27 | 120 | 8.0 | 17.7 | 0.00 | 0.00 | 0.00 | 35 | 1009.8 |
| 20260902183526 | 27 | 120 | 8.0 | 19.3 | 0.00 | 0.00 | 0.00 | 34 | 1010.0 |
| 20260902183044 | 27 | 146 | 8.0 | 19.3 | 0.00 | 0.00 | 0.00 | 36 | 1010.0 |
| 20260902182525 | 27 | 152 | 8.0 | 22.5 | 0.00 | 0.00 | 0.00 | 35 | 1010.0 |
| 20260902182026 | 27 | 113 | 4.8 | 22.5 | 0.00 | 0.00 | 0.00 | 38 | 1010.1 |
| 20260902181546 | 27 | 76 | 6.4 | 16.1 | 0.00 | 0.00 | 0.00 | 37 | 1010.1 |
| 20260902181025 | 26 | 124 | 6.4 | 16.1 | 0.00 | 0.00 | 0.00 | 36 | 1010.3 |
| 20260902180527 | 26 | 118 | 6.4 | 14.5 | 0.00 | 0.00 | 0.00 | 38 | 1010.3 |
| 20260902180043 | 26 | 60 | 8.0 | 16.1 | 0.00 | 0.00 | 0.00 | 34 | 1010.4 |
| 20260902175525 | 26 | 106 | 8.0 | 16.1 | 0.00 | 0.00 | 0.00 | 37 | 1010.6 |
| 20260902175028 | 26 | 101 | 8.0 | 17.7 | 0.00 | 0.00 | 0.00 | 36 | 1010.8 |
| 20260902174554 | 26 | 75 | 8.0 | 17.7 | 0.00 | 0.00 | 0.00 | 37 | 1010.7 |
| 20260902174027 | 26 | 106 | 4.8 | 16.1 | 0.00 | 0.00 | 0.00 | 41 | 1010.9 |
| 20260902173527 | 26 | 127 | 4.8 | 16.1 | 0.00 | 0.00 | 0.00 | 37 | 1011.0 |
| 20260902173045 | 26 | 108 | 4.8 | 16.1 | 0.00 | 0.00 | 0.00 | 42 | 1011.0 |
| 20260902172526 | 26 | 176 | 6.4 | 14.5 | 0.00 | 0.00 | 0.00 | 40 | 1011.0 |
| 20260902172026 | 26 | 112 | 6.4 | 11.3 | 0.00 | 0.00 | 0.00 | 39 | 1011.2 |
| 20260902171559 | 26 | 87 | 4.8 | 12.9 | 0.00 | 0.00 | 0.00 | 39 | 1011.1 |
| 20260902171025 | 25 | 144 | 4.8 | 12.9 | 0.00 | 0.00 | 0.00 | 40 | 1011.2 |
| 20260902170527 | 25 | 101 | 4.8 | 14.5 | 0.00 | 0.00 | 0.00 | 39 | 1011.2 |
| 20260902170043 | 25 | 139 | 4.8 | 14.5 | 0.00 | 0.00 | 0.00 | 40 | 1011.4 |
| 20260902165525 | 25 | 100 | 4.8 | 14.5 | 0.00 | 0.00 | 0.00 | 40 | 1011.3 |
| 20260902165026 | 25 | 150 | 6.4 | 14.5 | 0.00 | 0.00 | 0.00 | 40 | 1011.4 |
| 20260902164554 | 25 | 103 | 6.4 | 14.5 | 0.00 | 0.00 | 0.00 | 42 | 1011.4 |
| 20260902164024 | 25 | 127 | 6.4 | 14.5 | 0.00 | 0.00 | 0.00 | 41 | 1011.5 |
| 20260902163525 | 24 | 165 | 6.4 | 14.5 | 0.00 | 0.00 | 0.00 | 44 | 1011.4 |